owner,sensor,date,latitude,longitude,vertical_datum,wind_speed,wind_to_direction,wind_speed_of_gust,qcFlag 
TABS,ioos:station:wmo:42045:1,2008-02-01T00:00:00Z,26.2168,-96.4998,4.0,11.75960033,343.7532651,15.77,'11111222,11111222,11111222' 
TABS,ioos:station:wmo:42045:1,2008-02-01T00:30:00Z,26.2168,-96.4998,4.0,10.62360108,343.7655104,14.68,'11111222,11111222,11111222' 
TABS,ioos:station:wmo:42045:1,2008-02-01T01:00:00Z,26.2168,-96.4998,4.0,10.87923251,337.3475682,13.9,'11111222,11111222,11111222' 
TABS,ioos:station:wmo:42045:1,2008-02-01T01:30:00Z,26.2168,-96.4998,4.0,12.23530139,340.1727611,16.52,'11111222,11111222,11111222' 
TABS,ioos:station:wmo:42045:1,2008-02-01T02:00:00Z,26.2168,-96.4998,4.0,11.69995726,344.7876568,15.77,'11111222,11111222,11111222' 
TABS,ioos:station:wmo:42045:1,2008-02-01T02:30:00Z,26.2168,-96.4998,4.0,11.98432309,343.3189014,14.92,'11111222,11111222,11111222' 
TABS,ioos:station:wmo:42045:1,2008-02-01T03:00:00Z,26.2168,-96.4998,4.0,11.78864284,348.4515899,16.56,'11111222,11111222,11111222' 
TABS,ioos:station:wmo:42045:1,2008-02-01T03:30:00Z,26.2168,-96.4998,4.0,11.69044054,347.6517539,15.37,'11111222,11111222,11111222' 
TABS,ioos:station:wmo:42045:1,2008-02-01T04:00:00Z,26.2168,-96.4998,4.0,11.38662812,353.7985311,16.16,'11111222,11111222,11111222' 
TABS,ioos:station:wmo:42045:1,2008-02-01T04:30:00Z,26.2168,-96.4998,4.0,11.60604153,352.6237365,14.85,'11111222,11111222,11111222' 
TABS,ioos:station:wmo:42045:1,2008-02-01T05:00:00Z,26.2168,-96.4998,4.0,11.06268051,352.9904217,14.49,'11111222,11111222,11111222' 
TABS,ioos:station:wmo:42045:1,2008-02-01T05:30:00Z,26.2168,-96.4998,4.0,10.17133226,357.2949199,14.48,'11111222,11111222,11111222' 
TABS,ioos:station:wmo:42045:1,2008-02-01T06:00:00Z,26.2168,-96.4998,4.0,9.93581904,358.0387712,12.96,'11111222,11111222,11111222' 
TABS,ioos:station:wmo:42045:1,2008-02-01T06:30:00Z,26.2168,-96.4998,4.0,9.226510716,354.9009498,12.34,'11111222,11111222,11111222' 
TABS,ioos:station:wmo:42045:1,2008-02-01T07:00:00Z,26.2168,-96.4998,4.0,9.878851148,3.539937213,13.26,'11111222,11111222,11111222' 
TABS,ioos:station:wmo:42045:1,2008-02-01T07:30:00Z,26.2168,-96.4998,4.0,9.506818606,2.169954555,13.0,'11111222,11111222,11111222' 
TABS,ioos:station:wmo:42045:1,2008-02-01T08:00:00Z,26.2168,-96.4998,4.0,8.740205947,359.6064618,11.99,'11111222,11144222,11111222' 
TABS,ioos:station:wmo:42045:1,2008-02-01T08:30:00Z,26.2168,-96.4998,4.0,8.668869592,5.427576309,11.68,'11111222,11111222,11111222' 
TABS,ioos:station:wmo:42045:1,2008-02-01T09:00:00Z,26.2168,-96.4998,4.0,8.440290279,9.272369635,11.0,'11111222,11111222,11111222' 
TABS,ioos:station:wmo:42045:1,2008-02-01T09:30:00Z,26.2168,-96.4998,4.0,8.608861713,10.30461191,11.8,'11111222,11111222,11111222' 
TABS,ioos:station:wmo:42045:1,2008-02-01T10:00:00Z,26.2168,-96.4998,4.0,8.155599304,12.24662597,10.91,'11111222,11111222,11111222' 
TABS,ioos:station:wmo:42045:1,2008-02-01T10:30:00Z,26.2168,-96.4998,4.0,7.002313903,17.45139771,10.58,'11111222,11111222,11111222' 
TABS,ioos:station:wmo:42045:1,2008-02-01T11:00:00Z,26.2168,-96.4998,4.0,6.98507695,14.25483666,10.23,'11111222,11111222,11111222' 
TABS,ioos:station:wmo:42045:1,2008-02-01T11:30:00Z,26.2168,-96.4998,4.0,6.583654001,25.74743693,8.63,'11111222,11111222,11111222' 
TABS,ioos:station:wmo:42045:1,2008-02-01T12:00:00Z,26.2168,-96.4998,4.0,6.205972929,28.38176723,9.03,'11111222,11111222,11111222' 
TABS,ioos:station:wmo:42045:1,2008-02-01T12:30:00Z,26.2168,-96.4998,4.0,5.892860087,31.39701801,8.88,'11111222,11111222,11111222' 
TABS,ioos:station:wmo:42045:1,2008-02-01T13:00:00Z,26.2168,-96.4998,4.0,5.847093295,34.47795139,9.1,'11111222,11111222,11111222' 
TABS,ioos:station:wmo:42045:1,2008-02-01T13:30:00Z,26.2168,-96.4998,4.0,5.650141591,45.64503976,7.48,'11111222,11111222,11111222' 
TABS,ioos:station:wmo:42045:1,2008-02-01T14:00:00Z,26.2168,-96.4998,4.0,5.084142012,45.23874681,7.37,'11111222,11111222,11111222' 
TABS,ioos:station:wmo:42045:1,2008-02-01T14:30:00Z,26.2168,-96.4998,4.0,5.70954464,43.08344442,8.66,'11111222,11111222,11111222' 
TABS,ioos:station:wmo:42045:1,2008-02-01T15:00:00Z,26.2168,-96.4998,4.0,5.416456406,45.14928096,7.73,'11111222,11111222,11111222' 
TABS,ioos:station:wmo:42045:1,2008-02-01T15:30:00Z,26.2168,-96.4998,4.0,4.990490958,52.32607384,7.28,'11111222,11111222,11111222' 
TABS,ioos:station:wmo:42045:1,2008-02-01T16:00:00Z,26.2168,-96.4998,4.0,4.437172523,54.44697374,6.84,'11111222,11111222,11111222' 
TABS,ioos:station:wmo:42045:1,2008-02-01T16:30:00Z,26.2168,-96.4998,4.0,4.416786162,47.56891932,6.96,'11111222,11111222,11111222' 
TABS,ioos:station:wmo:42045:1,2008-02-01T17:00:00Z,26.2168,-96.4998,4.0,4.127687004,51.49160871,5.97,'11111222,11111222,11111222' 
TABS,ioos:station:wmo:42045:1,2008-02-01T17:30:00Z,26.2168,-96.4998,4.0,3.278673512,64.52878037,5.2,'11111222,11111222,11111222' 
TABS,ioos:station:wmo:42045:1,2008-02-01T18:00:00Z,26.2168,-96.4998,4.0,3.062025473,70.14441114,4.43,'11111222,11111222,11111222' 
TABS,ioos:station:wmo:42045:1,2008-02-01T18:30:00Z,26.2168,-96.4998,4.0,2.924807686,63.17176781,4.97,'11111222,11111222,11111222' 
TABS,ioos:station:wmo:42045:1,2008-02-01T19:00:00Z,26.2168,-96.4998,4.0,3.485656323,84.56705192,5.34,'11111222,11111222,11111222' 
TABS,ioos:station:wmo:42045:1,2008-02-01T19:30:00Z,26.2168,-96.4998,4.0,3.049540949,74.59619014,4.82,'11111222,11111222,11111222' 
TABS,ioos:station:wmo:42045:1,2008-02-01T20:00:00Z,26.2168,-96.4998,4.0,3.215042768,86.79010027,4.49,'11111222,11111222,11111222' 
TABS,ioos:station:wmo:42045:1,2008-02-01T20:30:00Z,26.2168,-96.4998,4.0,4.012106679,91.85723542,6.15,'11111222,11111222,11111222' 
TABS,ioos:station:wmo:42045:1,2008-02-01T21:00:00Z,26.2168,-96.4998,4.0,4.011795109,91.71449229,6.51,'11111222,11111222,11111222' 
TABS,ioos:station:wmo:42045:1,2008-02-01T21:30:00Z,26.2168,-96.4998,4.0,3.730335106,89.23158694,5.65,'11111222,11111222,11111222' 
TABS,ioos:station:wmo:42045:1,2008-02-01T22:00:00Z,26.2168,-96.4998,4.0,3.816935944,102.2524109,5.37,'11111222,11111222,11111222' 
TABS,ioos:station:wmo:42045:1,2008-02-01T22:30:00Z,26.2168,-96.4998,4.0,4.91187337,109.5051145,6.5,'11111222,11111222,11111222' 
TABS,ioos:station:wmo:42045:1,2008-02-01T23:00:00Z,26.2168,-96.4998,4.0,5.309105386,117.4824481,7.52,'11111222,11111222,11111222' 
TABS,ioos:station:wmo:42045:1,2008-02-01T23:30:00Z,26.2168,-96.4998,4.0,5.083787958,130.7727614,6.93,'11111222,11111222,11111222' 
TABS,ioos:station:wmo:42045:1,2008-02-02T00:00:00Z,26.2168,-96.4998,4.0,5.663929731,135.0718458,7.93,'11111222,11111222,11111222' 
TABS,ioos:station:wmo:42045:1,2008-02-02T00:30:00Z,26.2168,-96.4998,4.0,6.710029806,143.3011754,9.34,'11111222,11111222,11111222' 
TABS,ioos:station:wmo:42045:1,2008-02-02T01:00:00Z,26.2168,-96.4998,4.0,6.981754794,136.567283,9.21,'11111222,11111222,11111222' 
TABS,ioos:station:wmo:42045:1,2008-02-02T01:30:00Z,26.2168,-96.4998,4.0,6.870232893,146.8190917,8.96,'11111222,11111222,11111222' 
TABS,ioos:station:wmo:42045:1,2008-02-02T02:00:00Z,26.2168,-96.4998,4.0,6.759201136,141.3669693,9.25,'11111222,11111222,11111222' 
TABS,ioos:station:wmo:42045:1,2008-02-02T02:30:00Z,26.2168,-96.4998,4.0,6.19925802,150.2095439,8.5,'11111222,11111222,11111222' 
TABS,ioos:station:wmo:42045:1,2008-02-02T03:00:00Z,26.2168,-96.4998,4.0,6.80624713,155.4309091,8.69,'11111222,11111222,11111222' 
TABS,ioos:station:wmo:42045:1,2008-02-02T03:30:00Z,26.2168,-96.4998,4.0,7.101077383,157.914174,9.28,'11111222,11111222,11111222' 
TABS,ioos:station:wmo:42045:1,2008-02-02T04:00:00Z,26.2168,-96.4998,4.0,7.137856821,156.9913942,9.61,'11111222,11111222,11111222' 
TABS,ioos:station:wmo:42045:1,2008-02-02T04:30:00Z,26.2168,-96.4998,4.0,7.379444424,159.4533006,9.42,'11111222,11111222,11111222' 
TABS,ioos:station:wmo:42045:1,2008-02-02T05:00:00Z,26.2168,-96.4998,4.0,7.472616677,158.6544737,9.72,'11111222,11111222,11111222' 
TABS,ioos:station:wmo:42045:1,2008-02-02T05:30:00Z,26.2168,-96.4998,4.0,7.984985911,165.198247,11.01,'11111222,11111222,11111222' 
TABS,ioos:station:wmo:42045:1,2008-02-02T06:00:00Z,26.2168,-96.4998,4.0,8.295233571,163.9030505,11.11,'11111222,11111222,11111222' 
TABS,ioos:station:wmo:42045:1,2008-02-02T06:30:00Z,26.2168,-96.4998,4.0,8.180739575,166.065919,10.98,'11111222,11111222,11111222' 
TABS,ioos:station:wmo:42045:1,2008-02-02T07:00:00Z,26.2168,-96.4998,4.0,8.273572384,173.4764923,10.38,'11111222,11111222,11111222' 
TABS,ioos:station:wmo:42045:1,2008-02-02T07:30:00Z,26.2168,-96.4998,4.0,7.844979286,174.5875886,9.57,'11111222,11111222,11111222' 
TABS,ioos:station:wmo:42045:1,2008-02-02T08:00:00Z,26.2168,-96.4998,4.0,8.466008505,174.7138855,10.97,'11111222,11111222,11111222' 
TABS,ioos:station:wmo:42045:1,2008-02-02T08:30:00Z,26.2168,-96.4998,4.0,8.405718292,177.8866875,10.5,'11111222,11111222,11111222' 
TABS,ioos:station:wmo:42045:1,2008-02-02T09:00:00Z,26.2168,-96.4998,4.0,8.124463059,175.552836,10.53,'11111222,11111222,11111222' 
TABS,ioos:station:wmo:42045:1,2008-02-02T09:30:00Z,26.2168,-96.4998,4.0,7.840408153,179.4155813,10.0,'11111222,11111222,11111222' 
TABS,ioos:station:wmo:42045:1,2008-02-02T10:00:00Z,26.2168,-96.4998,4.0,7.68380765,174.6235176,9.92,'11111222,11111222,11111222' 
TABS,ioos:station:wmo:42045:1,2008-02-02T10:30:00Z,26.2168,-96.4998,4.0,7.516395413,177.6364858,9.49,'11111222,11111222,11111222' 
TABS,ioos:station:wmo:42045:1,2008-02-02T11:00:00Z,26.2168,-96.4998,4.0,7.758356785,177.3406471,10.02,'11111222,11111222,11111222' 
TABS,ioos:station:wmo:42045:1,2008-02-02T11:30:00Z,26.2168,-96.4998,4.0,7.353176184,176.5696993,9.96,'11111222,11111222,11111222' 
TABS,ioos:station:wmo:42045:1,2008-02-02T12:00:00Z,26.2168,-96.4998,4.0,7.059985836,174.717624,8.77,'11111222,11111222,11111222' 
TABS,ioos:station:wmo:42045:1,2008-02-02T12:30:00Z,26.2168,-96.4998,4.0,6.806621776,171.9772662,8.41,'11111222,11111222,11111222' 
TABS,ioos:station:wmo:42045:1,2008-02-02T13:00:00Z,26.2168,-96.4998,4.0,7.207551595,171.0606664,9.27,'11111222,11111222,11111222' 
TABS,ioos:station:wmo:42045:1,2008-02-02T13:30:00Z,26.2168,-96.4998,4.0,6.570616409,166.5350339,8.98,'11111222,11111222,11111222' 
TABS,ioos:station:wmo:42045:1,2008-02-02T14:00:00Z,26.2168,-96.4998,4.0,6.371577513,165.5496114,7.84,'11111222,11111222,11111222' 
TABS,ioos:station:wmo:42045:1,2008-02-02T14:30:00Z,26.2168,-96.4998,4.0,6.840095029,161.8566809,8.82,'11111222,11111222,11111222' 
TABS,ioos:station:wmo:42045:1,2008-02-02T15:00:00Z,26.2168,-96.4998,4.0,6.941217472,161.6958185,9.12,'11111222,11111222,11111222' 
TABS,ioos:station:wmo:42045:1,2008-02-02T15:30:00Z,26.2168,-96.4998,4.0,6.510890876,164.0427642,8.83,'11111222,11111222,11111222' 
TABS,ioos:station:wmo:42045:1,2008-02-02T16:00:00Z,26.2168,-96.4998,4.0,7.142884571,164.407436,8.93,'11111222,11111222,11111222' 
TABS,ioos:station:wmo:42045:1,2008-02-02T16:30:00Z,26.2168,-96.4998,4.0,6.23644931,163.5122001,8.24,'11111222,11111222,11111222' 
TABS,ioos:station:wmo:42045:1,2008-02-02T17:00:00Z,26.2168,-96.4998,4.0,6.065278229,161.7445398,7.96,'11111222,11111222,11111222' 
TABS,ioos:station:wmo:42045:1,2008-02-02T17:30:00Z,26.2168,-96.4998,4.0,4.149855419,165.6291372,5.57,'11111222,11111222,11111222' 
TABS,ioos:station:wmo:42045:1,2008-02-02T18:00:00Z,26.2168,-96.4998,4.0,4.140169079,165.5947887,5.05,'11111222,11111222,11111222' 
TABS,ioos:station:wmo:42045:1,2008-02-02T18:30:00Z,26.2168,-96.4998,4.0,4.308131846,164.9317575,5.59,'11111222,11111222,11111222' 
TABS,ioos:station:wmo:42045:1,2008-02-02T19:00:00Z,26.2168,-96.4998,4.0,3.632588609,154.9166751,4.4,'11111222,11111222,11111222' 
TABS,ioos:station:wmo:42045:1,2008-02-02T19:30:00Z,26.2168,-96.4998,4.0,3.19820262,143.7753509,4.0,'11111222,11111222,11111222' 
TABS,ioos:station:wmo:42045:1,2008-02-02T20:00:00Z,26.2168,-96.4998,4.0,2.612680616,137.9478949,3.22,'11111222,11111222,11111222' 
TABS,ioos:station:wmo:42045:1,2008-02-02T20:30:00Z,26.2168,-96.4998,4.0,3.004663043,138.7785046,3.82,'11111222,11111222,11111222' 
TABS,ioos:station:wmo:42045:1,2008-02-02T21:00:00Z,26.2168,-96.4998,4.0,3.153727953,134.7433863,3.9,'11111222,11111222,11111222' 
TABS,ioos:station:wmo:42045:1,2008-02-02T21:30:00Z,26.2168,-96.4998,4.0,3.52115038,131.4311669,4.32,'11111222,11111222,11111222' 
TABS,ioos:station:wmo:42045:1,2008-02-02T22:00:00Z,26.2168,-96.4998,4.0,3.956008089,122.4048886,4.78,'11111222,11111222,11111222' 
TABS,ioos:station:wmo:42045:1,2008-02-02T22:30:00Z,26.2168,-96.4998,4.0,3.220077639,123.9865086,3.93,'11111222,11111222,11111222' 
TABS,ioos:station:wmo:42045:1,2008-02-02T23:00:00Z,26.2168,-96.4998,4.0,2.948219802,126.1705917,3.49,'11111222,11111222,11111222' 
TABS,ioos:station:wmo:42045:1,2008-02-02T23:30:00Z,26.2168,-96.4998,4.0,2.444299491,129.3557067,2.84,'11111222,11111222,11111222' 
TABS,ioos:station:wmo:42045:1,2008-02-03T00:00:00Z,26.2168,-96.4998,4.0,1.998049048,127.2716968,2.57,'11111222,11111222,11111222' 
TABS,ioos:station:wmo:42045:1,2008-02-03T00:30:00Z,26.2168,-96.4998,4.0,2.396351393,113.3559312,2.78,'11111222,11111222,11111222' 
TABS,ioos:station:wmo:42045:1,2008-02-03T01:00:00Z,26.2168,-96.4998,4.0,2.971228702,122.3532191,3.71,'11111222,11111222,11111222' 
TABS,ioos:station:wmo:42045:1,2008-02-03T01:30:00Z,26.2168,-96.4998,4.0,3.196075719,126.475838,3.9,'11111222,11111222,11111222' 
TABS,ioos:station:wmo:42045:1,2008-02-03T02:00:00Z,26.2168,-96.4998,4.0,3.594885255,132.745746,4.65,'11111222,11111222,11111222' 
TABS,ioos:station:wmo:42045:1,2008-02-03T02:30:00Z,26.2168,-96.4998,4.0,5.947478457,134.1147223,8.94,'11111222,11111222,11111222' 
TABS,ioos:station:wmo:42045:1,2008-02-03T03:00:00Z,26.2168,-96.4998,4.0,5.298018498,142.9789953,7.22,'11111222,11111222,11111222' 
TABS,ioos:station:wmo:42045:1,2008-02-03T03:30:00Z,26.2168,-96.4998,4.0,6.078174068,143.5640202,7.76,'11111222,11111222,11111222' 
TABS,ioos:station:wmo:42045:1,2008-02-03T04:00:00Z,26.2168,-96.4998,4.0,5.21913786,135.9318701,6.51,'11111222,11111222,11111222' 
TABS,ioos:station:wmo:42045:1,2008-02-03T04:30:00Z,26.2168,-96.4998,4.0,5.124109679,138.8774941,6.62,'11111222,11111222,11111222' 
TABS,ioos:station:wmo:42045:1,2008-02-03T05:00:00Z,26.2168,-96.4998,4.0,3.465284981,134.0649597,4.52,'11111222,11111222,11111222' 
TABS,ioos:station:wmo:42045:1,2008-02-03T05:30:00Z,26.2168,-96.4998,4.0,2.84260444,134.7152651,4.51,'11111222,11111222,11111222' 
TABS,ioos:station:wmo:42045:1,2008-02-03T06:00:00Z,26.2168,-96.4998,4.0,2.618740155,132.5242088,3.33,'11111222,11111222,11111222' 
TABS,ioos:station:wmo:42045:1,2008-02-03T06:30:00Z,26.2168,-96.4998,4.0,3.184163941,153.5156928,4.64,'11111222,11111222,11111222' 
TABS,ioos:station:wmo:42045:1,2008-02-03T07:00:00Z,26.2168,-96.4998,4.0,2.560820181,157.741826,3.47,'11111222,11111222,11111222' 
TABS,ioos:station:wmo:42045:1,2008-02-03T07:30:00Z,26.2168,-96.4998,4.0,3.128657859,146.8689381,3.9,'11111222,11111222,11111222' 
TABS,ioos:station:wmo:42045:1,2008-02-03T08:00:00Z,26.2168,-96.4998,4.0,2.786413465,142.1433499,3.34,'11111222,11111222,11111222' 
TABS,ioos:station:wmo:42045:1,2008-02-03T08:30:00Z,26.2168,-96.4998,4.0,3.064245421,158.9627486,3.89,'11111222,11111222,11111222' 
TABS,ioos:station:wmo:42045:1,2008-02-03T09:00:00Z,26.2168,-96.4998,4.0,3.322905355,150.4264938,3.97,'11111222,11111222,11111222' 
TABS,ioos:station:wmo:42045:1,2008-02-03T09:30:00Z,26.2168,-96.4998,4.0,3.307234494,158.1666815,4.13,'11111222,11111222,11111222' 
TABS,ioos:station:wmo:42045:1,2008-02-03T10:00:00Z,26.2168,-96.4998,4.0,2.429814808,147.0950445,3.14,'11111222,11111222,11111222' 
TABS,ioos:station:wmo:42045:1,2008-02-03T10:30:00Z,26.2168,-96.4998,4.0,2.596998267,144.7190852,3.22,'11111222,11111222,11111222' 
TABS,ioos:station:wmo:42045:1,2008-02-03T11:00:00Z,26.2168,-96.4998,4.0,2.143081893,157.5037916,2.65,'11111222,11111222,11111222' 
TABS,ioos:station:wmo:42045:1,2008-02-03T11:30:00Z,26.2168,-96.4998,4.0,2.183323155,169.9770522,2.8,'11111222,11111222,11111222' 
TABS,ioos:station:wmo:42045:1,2008-02-03T12:00:00Z,26.2168,-96.4998,4.0,3.216022388,171.4166091,4.06,'11111222,11111222,11111222' 
TABS,ioos:station:wmo:42045:1,2008-02-03T12:30:00Z,26.2168,-96.4998,4.0,3.298802813,160.5216836,3.95,'11111222,11111222,11111222' 
TABS,ioos:station:wmo:42045:1,2008-02-03T13:00:00Z,26.2168,-96.4998,4.0,2.826039632,168.5710215,3.51,'11111222,11111222,11111222' 
TABS,ioos:station:wmo:42045:1,2008-02-03T13:30:00Z,26.2168,-96.4998,4.0,3.851882657,168.1652063,4.79,'11111222,11111222,11111222' 
TABS,ioos:station:wmo:42045:1,2008-02-03T14:00:00Z,26.2168,-96.4998,4.0,4.467504896,159.6993926,5.3,'11111222,11111222,11111222' 
TABS,ioos:station:wmo:42045:1,2008-02-03T14:30:00Z,26.2168,-96.4998,4.0,2.624137954,159.0097765,3.21,'11111222,11111222,11111222' 
TABS,ioos:station:wmo:42045:1,2008-02-03T15:00:00Z,26.2168,-96.4998,4.0,1.856475155,154.8155722,2.41,'11111222,11111222,11111222' 
TABS,ioos:station:wmo:42045:1,2008-02-03T15:30:00Z,26.2168,-96.4998,4.0,4.188675208,156.8016742,5.16,'11111222,11111222,11111222' 
TABS,ioos:station:wmo:42045:1,2008-02-03T16:00:00Z,26.2168,-96.4998,4.0,5.076662289,154.4447318,6.61,'11111222,11111222,11111222' 
TABS,ioos:station:wmo:42045:1,2008-02-03T16:30:00Z,26.2168,-96.4998,4.0,5.748825967,154.9954174,6.83,'11111222,11111222,11111222' 
TABS,ioos:station:wmo:42045:1,2008-02-03T17:00:00Z,26.2168,-96.4998,4.0,5.202230291,150.7745153,6.54,'11111222,11111222,11111222' 
TABS,ioos:station:wmo:42045:1,2008-02-03T17:30:00Z,26.2168,-96.4998,4.0,5.894412609,153.8264602,7.59,'11111222,11111222,11111222' 
TABS,ioos:station:wmo:42045:1,2008-02-03T18:00:00Z,26.2168,-96.4998,4.0,5.550504482,154.2662039,7.07,'11111222,11111222,11111222' 
TABS,ioos:station:wmo:42045:1,2008-02-03T18:30:00Z,26.2168,-96.4998,4.0,6.261756942,157.8590241,7.92,'11111222,11111222,11111222' 
TABS,ioos:station:wmo:42045:1,2008-02-03T19:00:00Z,26.2168,-96.4998,4.0,6.55463195,160.0171507,8.16,'11111222,11111222,11111222' 
TABS,ioos:station:wmo:42045:1,2008-02-03T19:30:00Z,26.2168,-96.4998,4.0,5.843902805,161.4412884,7.26,'11111222,11111222,11111222' 
TABS,ioos:station:wmo:42045:1,2008-02-03T20:00:00Z,26.2168,-96.4998,4.0,6.110032733,163.5524973,7.72,'11111222,11111222,11111222' 
TABS,ioos:station:wmo:42045:1,2008-02-03T20:30:00Z,26.2168,-96.4998,4.0,5.522698616,168.4054563,6.67,'11111222,11111222,11111222' 
TABS,ioos:station:wmo:42045:1,2008-02-03T21:00:00Z,26.2168,-96.4998,4.0,5.897338383,167.1658301,7.23,'11111222,11111222,11111222' 
TABS,ioos:station:wmo:42045:1,2008-02-03T21:30:00Z,26.2168,-96.4998,4.0,5.916088235,166.8096306,7.5,'11111222,11111222,11111222' 
TABS,ioos:station:wmo:42045:1,2008-02-03T22:00:00Z,26.2168,-96.4998,4.0,6.25,163.7400438,7.72,'11111222,11111222,11111222' 
TABS,ioos:station:wmo:42045:1,2008-02-03T22:30:00Z,26.2168,-96.4998,4.0,5.525368766,160.5487171,7.16,'11111222,11111222,11111222' 
TABS,ioos:station:wmo:42045:1,2008-02-03T23:00:00Z,26.2168,-96.4998,4.0,6.343642487,161.9080463,8.2,'11111222,11111222,11111222' 
TABS,ioos:station:wmo:42045:1,2008-02-03T23:30:00Z,26.2168,-96.4998,4.0,5.967512044,164.8461778,7.67,'11111222,11111222,11111222' 
TABS,ioos:station:wmo:42045:1,2008-02-04T00:00:00Z,26.2168,-96.4998,4.0,6.401015544,165.2475702,8.23,'11111222,11111222,11111222' 
TABS,ioos:station:wmo:42045:1,2008-02-04T00:30:00Z,26.2168,-96.4998,4.0,6.569170419,164.8216236,8.59,'11111222,11111222,11111222' 
TABS,ioos:station:wmo:42045:1,2008-02-04T01:00:00Z,26.2168,-96.4998,4.0,5.942154491,165.7769127,7.96,'11111222,11111222,11111222' 
TABS,ioos:station:wmo:42045:1,2008-02-04T01:30:00Z,26.2168,-96.4998,4.0,6.354722653,165.4173022,8.63,'11111222,11111222,11111222' 
TABS,ioos:station:wmo:42045:1,2008-02-04T02:00:00Z,26.2168,-96.4998,4.0,6.071836625,168.9864033,8.13,'11111222,11111222,11111222' 
TABS,ioos:station:wmo:42045:1,2008-02-04T02:30:00Z,26.2168,-96.4998,4.0,7.099330954,161.6929118,9.35,'11111222,11111222,11111222' 
TABS,ioos:station:wmo:42045:1,2008-02-04T03:00:00Z,26.2168,-96.4998,4.0,7.189603605,163.6826653,9.41,'11111222,11111222,11111222' 
TABS,ioos:station:wmo:42045:1,2008-02-04T03:30:00Z,26.2168,-96.4998,4.0,7.25539799,164.1633251,9.32,'11111222,11111222,11111222' 
TABS,ioos:station:wmo:42045:1,2008-02-04T04:00:00Z,26.2168,-96.4998,4.0,7.567786995,163.3372637,9.39,'11111222,11111222,11111222' 
TABS,ioos:station:wmo:42045:1,2008-02-04T04:30:00Z,26.2168,-96.4998,4.0,7.154054794,163.5157958,8.92,'11111222,11111222,11111222' 
TABS,ioos:station:wmo:42045:1,2008-02-04T05:00:00Z,26.2168,-96.4998,4.0,6.652593479,168.1160159,8.48,'11111222,11111222,11111222' 
TABS,ioos:station:wmo:42045:1,2008-02-04T05:30:00Z,26.2168,-96.4998,4.0,6.302063154,166.9783664,7.76,'11111222,11111222,11111222' 
TABS,ioos:station:wmo:42045:1,2008-02-04T06:00:00Z,26.2168,-96.4998,4.0,5.781946039,170.3424185,7.92,'11111222,11111222,11111222' 
TABS,ioos:station:wmo:42045:1,2008-02-04T06:30:00Z,26.2168,-96.4998,4.0,6.563390892,165.3499902,8.28,'11111222,11111222,11111222' 
TABS,ioos:station:wmo:42045:1,2008-02-04T07:00:00Z,26.2168,-96.4998,4.0,5.383576878,168.2102429,6.71,'11111222,11111222,11111222' 
TABS,ioos:station:wmo:42045:1,2008-02-04T07:30:00Z,26.2168,-96.4998,4.0,5.59215522,164.5474331,7.03,'11111222,11111222,11111222' 
TABS,ioos:station:wmo:42045:1,2008-02-04T08:00:00Z,26.2168,-96.4998,4.0,5.243214663,167.5544004,6.5,'11111222,11111222,11111222' 
TABS,ioos:station:wmo:42045:1,2008-02-04T08:30:00Z,26.2168,-96.4998,4.0,4.755123553,167.3668781,5.85,'11111222,11111222,11111222' 
TABS,ioos:station:wmo:42045:1,2008-02-04T09:00:00Z,26.2168,-96.4998,4.0,5.97244506,163.9626096,7.73,'11111222,11111222,11111222' 
TABS,ioos:station:wmo:42045:1,2008-02-04T09:30:00Z,26.2168,-96.4998,4.0,6.700455208,163.9726318,8.5,'11111222,11111222,11111222' 
TABS,ioos:station:wmo:42045:1,2008-02-04T10:00:00Z,26.2168,-96.4998,4.0,7.450449651,163.9492184,9.36,'11111222,11111222,11111222' 
TABS,ioos:station:wmo:42045:1,2008-02-04T10:30:00Z,26.2168,-96.4998,4.0,7.185499287,162.422658,8.89,'11111222,11111222,11111222' 
TABS,ioos:station:wmo:42045:1,2008-02-04T11:00:00Z,26.2168,-96.4998,4.0,7.518723296,159.4442133,9.82,'11111222,11111222,11111222' 
TABS,ioos:station:wmo:42045:1,2008-02-04T11:30:00Z,26.2168,-96.4998,4.0,7.962637754,161.701831,10.36,'11111222,11111222,11111222' 
TABS,ioos:station:wmo:42045:1,2008-02-04T12:00:00Z,26.2168,-96.4998,4.0,7.511298157,168.4808696,9.63,'11111222,11111222,11111222' 
TABS,ioos:station:wmo:42045:1,2008-02-04T12:30:00Z,26.2168,-96.4998,4.0,7.335298222,169.3949747,9.45,'11111222,11111222,11111222' 
TABS,ioos:station:wmo:42045:1,2008-02-04T13:00:00Z,26.2168,-96.4998,4.0,7.14437541,174.3774095,8.87,'11111222,11111222,11111222' 
TABS,ioos:station:wmo:42045:1,2008-02-04T13:30:00Z,26.2168,-96.4998,4.0,6.989277502,177.0477503,8.61,'11111222,11111222,11111222' 
TABS,ioos:station:wmo:42045:1,2008-02-04T14:00:00Z,26.2168,-96.4998,4.0,6.561440391,184.6333107,8.11,'11111222,11111222,11111222' 
TABS,ioos:station:wmo:42045:1,2008-02-04T14:30:00Z,26.2168,-96.4998,4.0,6.044402369,188.3715936,7.39,'11111222,11111222,11111222' 
TABS,ioos:station:wmo:42045:1,2008-02-04T15:00:00Z,26.2168,-96.4998,4.0,7.977831786,163.0189663,10.21,'11111222,11111222,11111222' 
TABS,ioos:station:wmo:42045:1,2008-02-04T15:30:00Z,26.2168,-96.4998,4.0,8.678876655,166.8126435,11.31,'11111222,11111222,11111222' 
TABS,ioos:station:wmo:42045:1,2008-02-04T16:00:00Z,26.2168,-96.4998,4.0,8.657262847,169.4171699,10.88,'11111222,11111222,11111222' 
TABS,ioos:station:wmo:42045:1,2008-02-04T16:30:00Z,26.2168,-96.4998,4.0,7.43881711,171.652274,9.92,'11111222,11111222,11111222' 
TABS,ioos:station:wmo:42045:1,2008-02-04T17:00:00Z,26.2168,-96.4998,4.0,8.268403715,166.5018135,10.6,'11111222,11111222,11111222' 
TABS,ioos:station:wmo:42045:1,2008-02-04T17:30:00Z,26.2168,-96.4998,4.0,7.286322804,166.6696695,8.94,'11111222,11111222,11111222' 
TABS,ioos:station:wmo:42045:1,2008-02-04T18:00:00Z,26.2168,-96.4998,4.0,7.887255543,163.9550685,10.33,'11111222,11111222,11111222' 
TABS,ioos:station:wmo:42045:1,2008-02-04T18:30:00Z,26.2168,-96.4998,4.0,7.667052889,169.5550234,9.77,'11111222,11111222,11111222' 